Time,TemperatureF,DewpointF,PressureIn,WindDirection,WindDirectionDegrees,WindSpeedMPH,WindSpeedGustMPH,Humidity,HourlyPrecipIn,Conditions,Clouds,dailyrainin,SoftwareType,DateUTC
2013-09-10 00:02:00,80.2,75.3,29.92,ENE,65,2.0,2.0,85,0.00,,,0.00,Wunderground v.1.15,2013-09-10 04:02:00,
2013-09-10 00:04:00,80.1,75.2,29.92,ENE,60,1.0,2.0,85,0.00,,,0.00,Wunderground v.1.15,2013-09-10 04:04:00,
2013-09-10 00:10:00,80.0,75.1,29.92,NE,42,1.0,1.0,85,0.00,,,0.00,Wunderground v.1.15,2013-09-10 04:10:00,
2013-09-10 00:12:00,80.0,75.1,29.92,NE,42,1.0,1.0,85,0.00,,,0.00,Wunderground v.1.15,2013-09-10 04:12:00,
2013-09-10 00:13:00,79.9,75.0,29.92,NE,42,1.0,1.0,85,0.00,,,0.00,Wunderground v.1.15,2013-09-10 04:13:00,
2013-09-10 00:20:00,79.8,74.9,29.92,ENE,68,0.0,1.0,85,0.00,,,0.00,Wunderground v.1.15,2013-09-10 04:20:00,
2013-09-10 00:21:00,79.7,74.8,29.92,ENE,67,1.0,1.0,85,0.00,,,0.00,Wunderground v.1.15,2013-09-10 04:21:00,
2013-09-10 00:28:00,79.4,74.5,29.92,ENE,58,0.0,1.0,85,0.00,,,0.00,Wunderground v.1.15,2013-09-10 04:28:00,
2013-09-10 00:34:00,79.1,74.2,29.92,ENE,58,0.0,1.0,85,0.00,,,0.00,Wunderground v.1.15,2013-09-10 04:34:00,
2013-09-10 00:39:00,78.9,74.0,29.92,ENE,58,0.0,1.0,85,0.00,,,0.00,Wunderground v.1.15,2013-09-10 04:39:00,
2013-09-10 00:45:00,78.8,74.3,29.92,ENE,58,0.0,1.0,86,0.00,,,0.00,Wunderground v.1.15,2013-09-10 04:45:00,
2013-09-10 00:51:00,78.4,73.9,29.91,ENE,58,0.0,1.0,86,0.00,,,0.00,Wunderground v.1.15,2013-09-10 04:51:00,
2013-09-10 00:58:00,78.2,73.7,29.91,NE,56,0.0,1.0,86,0.00,,,0.00,Wunderground v.1.15,2013-09-10 04:58:00,
2013-09-10 01:04:00,78.2,73.7,29.91,NNW,335,0.0,1.0,86,0.00,,,0.00,Wunderground v.1.15,2013-09-10 05:04:00,
2013-09-10 01:10:00,77.9,73.7,29.91,NNW,335,0.0,1.0,87,0.00,,,0.00,Wunderground v.1.15,2013-09-10 05:10:00,
2013-09-10 01:15:00,77.7,73.5,29.91,NNW,334,0.0,1.0,87,0.00,,,0.00,Wunderground v.1.15,2013-09-10 05:15:00,
2013-09-10 01:21:00,77.7,73.9,29.91,NNW,334,0.0,1.0,88,0.00,,,0.00,Wunderground v.1.15,2013-09-10 05:21:00,
2013-09-10 01:28:00,77.7,73.9,29.92,NNW,334,0.0,1.0,88,0.00,,,0.00,Wunderground v.1.15,2013-09-10 05:28:00,
2013-09-10 01:34:00,77.5,73.7,29.92,NNW,334,0.0,1.0,88,0.00,,,0.00,Wunderground v.1.15,2013-09-10 05:34:00,
2013-09-10 01:40:00,77.4,73.9,29.92,NNW,342,0.0,1.0,89,0.00,,,0.00,Wunderground v.1.15,2013-09-10 05:40:00,
2013-09-10 01:45:00,77.6,73.8,29.92,NE,53,0.0,1.0,88,0.00,,,0.00,Wunderground v.1.15,2013-09-10 05:45:00,
2013-09-10 01:52:00,77.7,73.5,29.92,NNE,27,0.0,1.0,87,0.00,,,0.00,Wunderground v.1.15,2013-09-10 05:52:00,
2013-09-10 01:58:00,77.7,73.5,29.92,NE,54,1.0,1.0,87,0.00,,,0.00,Wunderground v.1.15,2013-09-10 05:58:00,
2013-09-10 02:04:00,77.7,73.5,29.92,NE,37,1.0,2.0,87,0.00,,,0.00,Wunderground v.1.15,2013-09-10 06:04:00,
2013-09-10 02:10:00,77.7,73.5,29.92,NE,36,1.0,3.0,87,0.00,,,0.00,Wunderground v.1.15,2013-09-10 06:10:00,
2013-09-10 02:15:00,77.7,73.5,29.92,ENE,65,1.0,3.0,87,0.00,,,0.00,Wunderground v.1.15,2013-09-10 06:15:00,
2013-09-10 02:21:00,77.8,73.6,29.92,ENE,76,1.0,1.0,87,0.00,,,0.00,Wunderground v.1.15,2013-09-10 06:21:00,
2013-09-10 02:27:00,77.7,73.5,29.91,ENE,65,1.0,1.0,87,0.00,,,0.00,Wunderground v.1.15,2013-09-10 06:27:00,
2013-09-10 02:34:00,77.6,73.4,29.91,ENE,65,0.0,1.0,87,0.00,,,0.00,Wunderground v.1.15,2013-09-10 06:34:00,
2013-09-10 02:40:00,77.4,73.2,29.91,ENE,65,0.0,1.0,87,0.00,,,0.00,Wunderground v.1.15,2013-09-10 06:40:00,
2013-09-10 02:46:00,77.2,73.4,29.91,ENE,65,0.0,1.0,88,0.00,,,0.00,Wunderground v.1.15,2013-09-10 06:46:00,
2013-09-10 02:51:00,76.9,73.4,29.91,ENE,65,0.0,1.0,89,0.00,,,0.00,Wunderground v.1.15,2013-09-10 06:51:00,
2013-09-10 02:57:00,76.7,73.5,29.91,ENE,65,0.0,1.0,90,0.00,,,0.00,Wunderground v.1.15,2013-09-10 06:57:00,
2013-09-10 03:04:00,76.6,73.4,29.91,ENE,65,0.0,1.0,90,0.00,,,0.00,Wunderground v.1.15,2013-09-10 07:04:00,
2013-09-10 03:08:00,76.6,73.8,29.91,ENE,65,0.0,1.0,91,0.00,,,0.00,Wunderground v.1.15,2013-09-10 07:08:00,
2013-09-10 03:14:00,76.8,74.0,29.90,ENE,65,0.0,1.0,91,0.00,,,0.00,Wunderground v.1.15,2013-09-10 07:14:00,
2013-09-10 03:19:00,77.0,73.8,29.90,ENE,65,0.0,1.0,90,0.00,,,0.00,Wunderground v.1.15,2013-09-10 07:19:00,
2013-09-10 03:25:00,76.8,74.0,29.90,ENE,65,0.0,1.0,91,0.00,,,0.00,Wunderground v.1.15,2013-09-10 07:25:00,
2013-09-10 03:31:00,76.6,73.8,29.90,ENE,65,0.0,1.0,91,0.00,,,0.00,Wunderground v.1.15,2013-09-10 07:31:00,
2013-09-10 03:37:00,76.5,74.0,29.90,ENE,65,0.0,1.0,92,0.00,,,0.00,Wunderground v.1.15,2013-09-10 07:37:00,
2013-09-10 03:44:00,76.7,74.2,29.90,ENE,65,0.0,1.0,92,0.00,,,0.00,Wunderground v.1.15,2013-09-10 07:44:00,
2013-09-10 03:49:00,76.6,74.1,29.90,ENE,65,0.0,1.0,92,0.00,,,0.00,Wunderground v.1.15,2013-09-10 07:49:00,
2013-09-10 03:55:00,76.7,74.2,29.90,ENE,65,0.0,1.0,92,0.00,,,0.00,Wunderground v.1.15,2013-09-10 07:55:00,
2013-09-10 04:02:00,76.8,74.3,29.90,ENE,65,0.0,0.0,92,0.00,,,0.00,Wunderground v.1.15,2013-09-10 08:02:00,
2013-09-10 04:08:00,76.9,74.4,29.90,NE,52,0.0,0.0,92,0.00,,,0.00,Wunderground v.1.15,2013-09-10 08:08:00,
2013-09-10 04:14:00,77.2,74.4,29.90,NE,39,0.0,0.0,91,0.00,,,0.00,Wunderground v.1.15,2013-09-10 08:14:00,
2013-09-10 04:19:00,77.2,74.4,29.90,SSE,167,0.0,2.0,91,0.00,,,0.00,Wunderground v.1.15,2013-09-10 08:19:00,
2013-09-10 04:25:00,77.2,74.4,29.90,SSE,153,1.0,3.0,91,0.00,,,0.00,Wunderground v.1.15,2013-09-10 08:25:00,
2013-09-10 04:32:00,77.5,74.7,29.90,SSE,158,1.0,2.0,91,0.00,,,0.00,Wunderground v.1.15,2013-09-10 08:32:00,
2013-09-10 04:38:00,77.5,74.3,29.90,SSE,158,1.0,2.0,90,0.00,,,0.00,Wunderground v.1.15,2013-09-10 08:38:00,
2013-09-10 04:44:00,77.5,74.7,29.90,SSE,158,0.0,0.0,91,0.00,,,0.00,Wunderground v.1.15,2013-09-10 08:44:00,
2013-09-10 04:49:00,77.4,74.6,29.90,SSE,158,0.0,0.0,91,0.00,,,0.00,Wunderground v.1.15,2013-09-10 08:49:00,
2013-09-10 04:55:00,77.5,74.7,29.90,ESE,107,0.0,1.0,91,0.00,,,0.00,Wunderground v.1.15,2013-09-10 08:55:00,
2013-09-10 05:02:00,77.7,74.9,29.90,SE,127,0.0,1.0,91,0.00,,,0.00,Wunderground v.1.15,2013-09-10 09:02:00,
2013-09-10 05:08:00,77.6,74.8,29.90,SE,124,0.0,1.0,91,0.00,,,0.00,Wunderground v.1.15,2013-09-10 09:08:00,
2013-09-10 05:14:00,77.5,75.0,29.90,SE,124,0.0,1.0,92,0.00,,,0.00,Wunderground v.1.15,2013-09-10 09:14:00,
2013-09-10 05:20:00,77.2,74.7,29.90,SE,124,0.0,1.0,92,0.00,,,0.00,Wunderground v.1.15,2013-09-10 09:20:00,
2013-09-10 05:25:00,77.0,74.8,29.90,SE,124,0.0,1.0,93,0.00,,,0.00,Wunderground v.1.15,2013-09-10 09:25:00,
2013-09-10 05:31:00,76.8,74.9,29.90,SE,124,0.0,1.0,94,0.00,,,0.00,Wunderground v.1.15,2013-09-10 09:31:00,
2013-09-10 05:38:00,76.7,74.8,29.90,SE,124,0.0,1.0,94,0.00,,,0.00,Wunderground v.1.15,2013-09-10 09:38:00,
2013-09-10 05:44:00,76.5,74.6,29.90,SE,124,0.0,1.0,94,0.00,,,0.00,Wunderground v.1.15,2013-09-10 09:44:00,
2013-09-10 05:52:00,76.3,74.8,29.91,SE,124,0.0,1.0,95,0.00,,,0.00,Wunderground v.1.15,2013-09-10 09:52:00,
2013-09-10 05:57:00,76.2,74.7,29.91,SE,124,0.0,1.0,95,0.00,,,0.00,Wunderground v.1.15,2013-09-10 09:57:00,
2013-09-10 06:03:00,76.1,74.6,29.91,SE,124,0.0,1.0,95,0.00,,,0.00,Wunderground v.1.15,2013-09-10 10:03:00,
2013-09-10 06:10:00,76.2,74.7,29.91,SE,124,0.0,1.0,95,0.00,,,0.00,Wunderground v.1.15,2013-09-10 10:10:00,
2013-09-10 06:16:00,76.7,74.8,29.91,SE,124,0.0,1.0,94,0.00,,,0.00,Wunderground v.1.15,2013-09-10 10:16:00,
2013-09-10 06:22:00,76.8,74.6,29.92,SE,124,0.0,1.0,93,0.00,,,0.00,Wunderground v.1.15,2013-09-10 10:22:00,
2013-09-10 06:27:00,76.7,74.5,29.91,SE,124,0.0,1.0,93,0.00,,,0.00,Wunderground v.1.15,2013-09-10 10:27:00,
2013-09-10 06:33:00,76.7,74.5,29.92,SE,124,0.0,1.0,93,0.00,,,0.00,Wunderground v.1.15,2013-09-10 10:33:00,
2013-09-10 06:40:00,76.6,74.4,29.92,SE,124,0.0,1.0,93,0.00,,,0.00,Wunderground v.1.15,2013-09-10 10:40:00,
2013-09-10 06:46:00,76.4,74.5,29.92,SE,124,0.0,1.0,94,0.00,,,0.00,Wunderground v.1.15,2013-09-10 10:46:00,
2013-09-10 06:52:00,76.2,74.3,29.92,SE,124,0.0,1.0,94,0.00,,,0.00,Wunderground v.1.15,2013-09-10 10:52:00,
2013-09-10 06:58:00,76.0,74.5,29.92,SE,124,0.0,1.0,95,0.00,,,0.00,Wunderground v.1.15,2013-09-10 10:58:00,
2013-09-10 07:06:00,76.0,74.5,29.92,SE,125,0.0,1.0,95,0.00,,,0.00,Wunderground v.1.15,2013-09-10 11:06:00,
2013-09-10 07:12:00,76.1,74.6,29.93,North,356,0.0,1.0,95,0.00,,,0.00,Wunderground v.1.15,2013-09-10 11:12:00,
2013-09-10 07:18:00,76.4,74.5,29.93,North,356,0.0,1.0,94,0.00,,,0.00,Wunderground v.1.15,2013-09-10 11:18:00,
2013-09-10 07:23:00,76.6,74.7,29.93,North,356,0.0,1.0,94,0.00,,,0.00,Wunderground v.1.15,2013-09-10 11:23:00,
2013-09-10 07:29:00,76.6,74.7,29.93,North,356,0.0,1.0,94,0.00,,,0.00,Wunderground v.1.15,2013-09-10 11:29:00,
2013-09-10 07:36:00,76.6,74.7,29.93,North,356,0.0,1.0,94,0.00,,,0.00,Wunderground v.1.15,2013-09-10 11:36:00,
2013-09-10 07:42:00,76.6,74.7,29.93,North,356,0.0,1.0,94,0.00,,,0.00,Wunderground v.1.15,2013-09-10 11:42:00,
2013-09-10 07:48:00,76.9,75.0,29.93,North,356,0.0,1.0,94,0.00,,,0.00,Wunderground v.1.15,2013-09-10 11:48:00,
2013-09-10 07:53:00,77.0,74.8,29.94,North,356,0.0,1.0,93,0.00,,,0.00,Wunderground v.1.15,2013-09-10 11:53:00,
2013-09-10 07:59:00,77.3,75.1,29.94,North,356,0.0,1.0,93,0.00,,,0.00,Wunderground v.1.15,2013-09-10 11:59:00,
2013-09-10 08:05:00,77.6,75.4,29.94,North,356,0.0,1.0,93,0.00,,,0.00,Wunderground v.1.15,2013-09-10 12:05:00,
2013-09-10 08:12:00,78.0,75.5,29.95,NE,38,0.0,1.0,92,0.00,,,0.00,Wunderground v.1.15,2013-09-10 12:12:00,
2013-09-10 08:18:00,78.8,75.6,29.95,NE,44,1.0,3.0,90,0.00,,,0.00,Wunderground v.1.15,2013-09-10 12:18:00,
2013-09-10 08:24:00,79.8,75.9,29.95,ENE,67,3.0,3.0,88,0.00,,,0.00,Wunderground v.1.15,2013-09-10 12:24:00,
2013-09-10 08:29:00,80.5,75.9,29.95,NE,52,2.0,2.0,86,0.00,,,0.00,Wunderground v.1.15,2013-09-10 12:29:00,
2013-09-10 08:35:00,81.4,76.1,29.96,ESE,120,2.0,3.0,84,0.00,,,0.00,Wunderground v.1.15,2013-09-10 12:35:00,
2013-09-10 08:42:00,82.4,75.6,29.96,SE,139,2.0,4.0,80,0.00,,,0.00,Wunderground v.1.15,2013-09-10 12:42:00,
2013-09-10 08:48:00,83.0,75.8,29.96,ENE,62,3.0,4.0,79,0.00,,,0.00,Wunderground v.1.15,2013-09-10 12:48:00,
2013-09-10 08:54:00,83.4,76.2,29.96,ENE,72,3.0,4.0,79,0.00,,,0.00,Wunderground v.1.15,2013-09-10 12:54:00,
2013-09-10 08:59:00,84.0,76.0,29.96,NE,43,2.0,3.0,77,0.00,,,0.00,Wunderground v.1.15,2013-09-10 12:59:00,
2013-09-10 09:06:00,84.2,75.4,29.96,ENE,77,3.0,7.0,75,0.00,,,0.00,Wunderground v.1.15,2013-09-10 13:06:00,
2013-09-10 09:12:00,84.6,76.2,29.96,East,86,3.0,6.0,76,0.00,,,0.00,Wunderground v.1.15,2013-09-10 13:12:00,
2013-09-10 09:18:00,84.6,76.2,29.96,ENE,75,4.0,6.0,76,0.00,,,0.00,Wunderground v.1.15,2013-09-10 13:18:00,
2013-09-10 09:24:00,84.9,76.1,29.96,ESE,110,4.0,5.0,75,0.00,,,0.00,Wunderground v.1.15,2013-09-10 13:24:00,
2013-09-10 09:29:00,85.4,76.2,29.96,ENE,57,4.0,4.0,74,0.00,,,0.00,Wunderground v.1.15,2013-09-10 13:29:00,
2013-09-10 09:35:00,85.4,76.2,29.96,East,98,4.0,5.0,74,0.00,,,0.00,Wunderground v.1.15,2013-09-10 13:35:00,
2013-09-10 09:42:00,85.5,75.4,29.97,SE,124,5.0,11.0,72,0.00,,,0.00,Wunderground v.1.15,2013-09-10 13:42:00,
2013-09-10 09:48:00,85.2,77.2,29.97,NE,49,6.0,11.0,77,0.00,,,0.00,Wunderground v.1.15,2013-09-10 13:48:00,
2013-09-10 09:53:00,83.9,77.4,29.97,NE,38,4.0,5.0,81,0.00,,,0.00,Wunderground v.1.15,2013-09-10 13:53:00,
2013-09-10 09:59:00,84.7,78.6,29.97,ENE,70,1.0,1.0,82,0.00,,,0.00,Wunderground v.1.15,2013-09-10 13:59:00,
2013-09-10 10:06:00,85.2,75.6,29.97,East,83,2.0,3.0,73,0.00,,,0.00,Wunderground v.1.15,2013-09-10 14:06:00,
2013-09-10 10:12:00,85.7,75.2,29.97,ESE,118,3.0,5.0,71,0.00,,,0.00,Wunderground v.1.15,2013-09-10 14:12:00,
2013-09-10 10:18:00,85.8,75.7,29.97,ESE,104,4.0,9.0,72,0.00,,,0.00,Wunderground v.1.15,2013-09-10 14:18:00,
2013-09-10 10:24:00,85.6,76.4,29.97,NE,38,4.0,6.0,74,0.00,,,0.00,Wunderground v.1.15,2013-09-10 14:24:00,
2013-09-10 10:30:00,85.1,76.3,29.97,ENE,60,3.0,5.0,75,0.00,,,0.00,Wunderground v.1.15,2013-09-10 14:30:00,
2013-09-10 10:35:00,85.4,76.2,29.97,ENE,75,4.0,6.0,74,0.00,,,0.00,Wunderground v.1.15,2013-09-10 14:35:00,
2013-09-10 10:42:00,85.0,75.8,29.98,SE,125,4.0,7.0,74,0.00,,,0.00,Wunderground v.1.15,2013-09-10 14:42:00,
2013-09-10 10:48:00,84.3,75.9,29.98,ESE,120,4.0,7.0,76,0.00,,,0.00,Wunderground v.1.15,2013-09-10 14:48:00,
2013-09-10 10:54:00,82.8,75.6,29.98,ESE,116,6.0,9.0,79,0.00,,,0.00,Wunderground v.1.15,2013-09-10 14:54:00,
2013-09-10 10:59:00,80.2,74.2,29.98,SSE,161,6.0,6.0,82,0.30,,,0.03,Wunderground v.1.15,2013-09-10 14:59:00,
2013-09-10 11:05:00,79.5,74.6,29.98,SSE,149,3.0,6.0,85,0.08,,,0.03,Wunderground v.1.15,2013-09-10 15:05:00,
2013-09-10 11:11:00,79.7,74.4,29.99,SE,137,3.0,5.0,84,0.23,,,0.08,Wunderground v.1.15,2013-09-10 15:11:00,
2013-09-10 11:18:00,80.0,75.4,29.98,ESE,120,3.0,5.0,86,0.07,,,0.08,Wunderground v.1.15,2013-09-10 15:18:00,
2013-09-10 11:24:00,80.6,76.4,29.98,SE,143,3.0,3.0,87,0.04,,,0.08,Wunderground v.1.15,2013-09-10 15:24:00,
2013-09-10 11:30:00,81.8,76.8,29.97,SE,131,2.0,2.0,85,0.00,,,0.08,Wunderground v.1.15,2013-09-10 15:30:00,
2013-09-10 11:36:00,83.9,78.2,29.97,SE,125,1.0,4.0,83,0.00,,,0.08,Wunderground v.1.15,2013-09-10 15:36:00,
2013-09-10 11:41:00,85.8,77.0,29.97,ESE,119,4.0,6.0,75,0.00,,,0.08,Wunderground v.1.15,2013-09-10 15:41:00,
2013-09-10 11:48:00,86.9,75.5,29.97,ESE,105,5.0,6.0,69,0.00,,,0.08,Wunderground v.1.15,2013-09-10 15:48:00,
2013-09-10 11:54:00,87.3,76.3,29.97,SSE,152,5.0,5.0,70,0.00,,,0.08,Wunderground v.1.15,2013-09-10 15:54:00,
2013-09-10 12:00:00,86.6,75.6,29.97,South,175,5.0,5.0,70,0.00,,,0.08,Wunderground v.1.15,2013-09-10 16:00:00,
2013-09-10 12:06:00,86.6,76.1,29.97,NE,41,4.0,9.0,71,0.00,,,0.08,Wunderground v.1.15,2013-09-10 16:06:00,
2013-09-10 12:12:00,85.7,76.0,29.97,NNE,33,4.0,4.0,73,0.00,,,0.08,Wunderground v.1.15,2013-09-10 16:12:00,
2013-09-10 12:17:00,84.9,76.1,29.97,NE,39,4.0,8.0,75,0.00,,,0.08,Wunderground v.1.15,2013-09-10 16:17:00,
2013-09-10 12:23:00,83.7,75.7,29.97,NE,45,5.0,8.0,77,0.00,,,0.09,Wunderground v.1.15,2013-09-10 16:23:00,
2013-09-10 12:30:00,83.1,75.9,29.97,ENE,75,6.0,6.0,79,0.00,,,0.09,Wunderground v.1.15,2013-09-10 16:30:00,
2013-09-10 12:36:00,84.0,74.8,29.97,ENE,60,5.0,6.0,74,0.00,,,0.09,Wunderground v.1.15,2013-09-10 16:36:00,
2013-09-10 12:42:00,85.5,76.7,29.97,SSE,162,4.0,4.0,75,0.00,,,0.09,Wunderground v.1.15,2013-09-10 16:42:00,
2013-09-10 12:47:00,86.5,76.0,29.96,ENE,69,5.0,8.0,71,0.00,,,0.09,Wunderground v.1.15,2013-09-10 16:47:00,
2013-09-10 12:53:00,87.4,75.5,29.96,East,91,6.0,6.0,68,0.00,,,0.09,Wunderground v.1.15,2013-09-10 16:53:00,
2013-09-10 13:00:00,87.9,75.1,29.96,ENE,59,6.0,10.0,66,0.00,,,0.09,Wunderground v.1.15,2013-09-10 17:00:00,
2013-09-10 13:06:00,88.1,75.8,29.96,ESE,108,6.0,10.0,67,0.00,,,0.09,Wunderground v.1.15,2013-09-10 17:06:00,
2013-09-10 13:12:00,88.2,75.4,29.96,NE,54,6.0,6.0,66,0.00,,,0.09,Wunderground v.1.15,2013-09-10 17:12:00,
2013-09-10 13:18:00,88.2,74.9,29.96,NE,51,7.0,10.0,65,0.00,,,0.09,Wunderground v.1.15,2013-09-10 17:18:00,
2013-09-10 13:23:00,87.5,74.7,29.95,NE,51,6.0,8.0,66,0.00,,,0.09,Wunderground v.1.15,2013-09-10 17:23:00,
2013-09-10 13:29:00,87.0,74.7,29.96,NE,56,7.0,7.0,67,0.00,,,0.09,Wunderground v.1.15,2013-09-10 17:29:00,
2013-09-10 13:36:00,87.5,75.2,29.96,East,98,8.0,13.0,67,0.00,,,0.09,Wunderground v.1.15,2013-09-10 17:36:00,
2013-09-10 13:42:00,87.5,74.3,29.95,East,86,8.0,13.0,65,0.00,,,0.09,Wunderground v.1.15,2013-09-10 17:42:00,
2013-09-10 13:48:00,87.8,74.1,29.95,ESE,113,6.0,13.0,64,0.00,,,0.09,Wunderground v.1.15,2013-09-10 17:48:00,
2013-09-10 13:53:00,87.8,72.7,29.95,ENE,64,6.0,6.0,61,0.00,,,0.09,Wunderground v.1.15,2013-09-10 17:53:00,
2013-09-10 13:59:00,88.1,73.9,29.95,ESE,122,7.0,7.0,63,0.00,,,0.09,Wunderground v.1.15,2013-09-10 17:59:00,
2013-09-10 14:06:00,88.4,75.6,29.94,East,84,6.0,8.0,66,0.00,,,0.09,Wunderground v.1.15,2013-09-10 18:06:00,
2013-09-10 14:12:00,88.4,74.2,29.95,East,96,6.0,6.0,63,0.00,,,0.09,Wunderground v.1.15,2013-09-10 18:12:00,
2013-09-10 14:18:00,88.3,73.6,29.95,ESE,105,8.0,8.0,62,0.00,,,0.09,Wunderground v.1.15,2013-09-10 18:18:00,
2013-09-10 14:24:00,87.8,74.1,29.95,East,86,8.0,8.0,64,0.00,,,0.09,Wunderground v.1.15,2013-09-10 18:24:00,
2013-09-10 14:30:00,88.2,73.5,29.95,ENE,62,7.0,8.0,62,0.00,,,0.09,Wunderground v.1.15,2013-09-10 18:30:00,
2013-09-10 14:36:00,88.6,74.9,29.94,ENE,65,6.0,12.0,64,0.00,,,0.09,Wunderground v.1.15,2013-09-10 18:36:00,
2013-09-10 14:42:00,88.4,74.7,29.94,East,92,7.0,7.0,64,0.00,,,0.09,Wunderground v.1.15,2013-09-10 18:42:00,
2013-09-10 14:48:00,88.6,74.9,29.94,ESE,105,6.0,8.0,64,0.00,,,0.09,Wunderground v.1.15,2013-09-10 18:48:00,
2013-09-10 14:54:00,88.1,73.9,29.94,SE,138,7.0,11.0,63,0.00,,,0.09,Wunderground v.1.15,2013-09-10 18:54:00,
2013-09-10 14:59:00,88.8,74.6,29.93,East,79,6.0,6.0,63,0.00,,,0.09,Wunderground v.1.15,2013-09-10 18:59:00,
2013-09-10 15:05:00,87.9,74.7,29.93,East,86,6.0,6.0,65,0.00,,,0.09,Wunderground v.1.15,2013-09-10 19:05:00,
2013-09-10 15:12:00,88.1,74.8,29.92,SE,134,7.0,9.0,65,0.00,,,0.09,Wunderground v.1.15,2013-09-10 19:12:00,
2013-09-10 15:18:00,87.8,74.1,29.92,ENE,60,7.0,10.0,64,0.00,,,0.09,Wunderground v.1.15,2013-09-10 19:18:00,
2013-09-10 15:24:00,88.3,74.6,29.92,ENE,61,6.0,9.0,64,0.00,,,0.09,Wunderground v.1.15,2013-09-10 19:24:00,
2013-09-10 15:29:00,88.4,74.2,29.92,NNE,33,7.0,7.0,63,0.00,,,0.09,Wunderground v.1.15,2013-09-10 19:29:00,
2013-09-10 15:36:00,87.8,73.6,29.92,East,82,8.0,9.0,63,0.00,,,0.09,Wunderground v.1.15,2013-09-10 19:36:00,
2013-09-10 15:42:00,87.7,74.0,29.92,ENE,57,8.0,8.0,64,0.00,,,0.09,Wunderground v.1.15,2013-09-10 19:42:00,
2013-09-10 15:48:00,86.9,73.7,29.92,NNE,24,7.0,12.0,65,0.00,,,0.09,Wunderground v.1.15,2013-09-10 19:48:00,
2013-09-10 15:54:00,85.3,73.5,29.93,ENE,77,9.0,11.0,68,0.00,,,0.09,Wunderground v.1.15,2013-09-10 19:54:00,
2013-09-10 16:00:00,83.9,71.3,29.93,East,79,10.0,10.0,66,0.00,,,0.09,Wunderground v.1.15,2013-09-10 20:00:00,
2013-09-10 16:05:00,82.0,70.8,29.93,East,94,10.0,14.0,69,0.00,,,0.09,Wunderground v.1.15,2013-09-10 20:05:00,
2013-09-10 16:11:00,80.8,71.7,29.93,NE,49,10.0,13.0,74,0.00,,,0.09,Wunderground v.1.15,2013-09-10 20:11:00,
2013-09-10 16:18:00,81.4,71.9,29.93,NE,49,8.0,13.0,73,0.00,,,0.09,Wunderground v.1.15,2013-09-10 20:18:00,
2013-09-10 16:24:00,82.6,72.2,29.93,ENE,65,6.0,7.0,71,0.00,,,0.09,Wunderground v.1.15,2013-09-10 20:24:00,
2013-09-10 16:30:00,83.8,73.4,29.93,SE,135,6.0,6.0,71,0.00,,,0.09,Wunderground v.1.15,2013-09-10 20:30:00,
2013-09-10 16:38:00,84.6,73.3,29.93,ENE,60,7.0,7.0,69,0.00,,,0.09,Wunderground v.1.15,2013-09-10 20:38:00,
2013-09-10 16:43:00,84.9,73.6,29.93,East,84,6.0,7.0,69,0.00,,,0.09,Wunderground v.1.15,2013-09-10 20:43:00,
2013-09-10 16:50:00,85.1,73.3,29.93,ENE,72,6.0,6.0,68,0.00,,,0.09,Wunderground v.1.15,2013-09-10 20:50:00,
2013-09-10 16:56:00,85.0,74.1,29.93,East,82,6.0,6.0,70,0.00,,,0.09,Wunderground v.1.15,2013-09-10 20:56:00,
2013-09-10 17:02:00,85.2,75.1,29.93,East,84,5.0,8.0,72,0.00,,,0.09,Wunderground v.1.15,2013-09-10 21:02:00,
2013-09-10 17:08:00,84.1,75.3,29.92,ESE,112,7.0,12.0,75,0.00,,,0.09,Wunderground v.1.15,2013-09-10 21:08:00,
2013-09-10 17:14:00,83.5,74.7,29.93,East,99,7.0,7.0,75,0.00,,,0.09,Wunderground v.1.15,2013-09-10 21:14:00,
2013-09-10 17:19:00,83.2,74.0,29.93,ENE,64,6.0,6.0,74,0.00,,,0.09,Wunderground v.1.15,2013-09-10 21:19:00,
2013-09-10 17:26:00,83.0,74.3,29.93,ENE,68,5.0,8.0,75,0.00,,,0.09,Wunderground v.1.15,2013-09-10 21:26:00,
2013-09-10 17:32:00,82.9,73.4,29.93,NE,55,5.0,7.0,73,0.00,,,0.09,Wunderground v.1.15,2013-09-10 21:32:00,
2013-09-10 17:38:00,82.6,73.1,29.93,ESE,103,6.0,11.0,73,0.00,,,0.09,Wunderground v.1.15,2013-09-10 21:38:00,
2013-09-10 17:44:00,82.4,73.3,29.93,NE,38,6.0,9.0,74,0.00,,,0.09,Wunderground v.1.15,2013-09-10 21:44:00,
2013-09-10 17:49:00,82.3,74.0,29.93,ENE,57,6.0,6.0,76,0.00,,,0.09,Wunderground v.1.15,2013-09-10 21:49:00,
2013-09-10 17:55:00,82.4,74.1,29.93,ENE,61,5.0,7.0,76,0.00,,,0.09,Wunderground v.1.15,2013-09-10 21:55:00,
2013-09-10 18:02:00,82.3,73.6,29.93,NE,44,5.0,6.0,75,0.00,,,0.09,Wunderground v.1.15,2013-09-10 22:02:00,
2013-09-10 18:08:00,82.5,73.8,29.94,ENE,78,5.0,6.0,75,0.00,,,0.09,Wunderground v.1.15,2013-09-10 22:08:00,
2013-09-10 18:14:00,82.7,74.0,29.93,ESE,122,3.0,7.0,75,0.00,,,0.09,Wunderground v.1.15,2013-09-10 22:14:00,
2013-09-10 18:19:00,82.7,74.0,29.94,ENE,64,3.0,4.0,75,0.00,,,0.09,Wunderground v.1.15,2013-09-10 22:19:00,
2013-09-10 18:25:00,82.8,74.8,29.94,East,87,3.0,4.0,77,0.00,,,0.09,Wunderground v.1.15,2013-09-10 22:25:00,
2013-09-10 18:32:00,82.8,75.6,29.95,ENE,63,3.0,3.0,79,0.00,,,0.09,Wunderground v.1.15,2013-09-10 22:32:00,
2013-09-10 18:38:00,82.9,75.7,29.95,ENE,63,4.0,5.0,79,0.00,,,0.09,Wunderground v.1.15,2013-09-10 22:38:00,
2013-09-10 18:44:00,83.1,75.5,29.95,ESE,110,4.0,5.0,78,0.00,,,0.09,Wunderground v.1.15,2013-09-10 22:44:00,
2013-09-10 18:50:00,83.1,75.5,29.95,ESE,117,5.0,5.0,78,0.00,,,0.09,Wunderground v.1.15,2013-09-10 22:50:00,
2013-09-10 18:55:00,83.3,75.7,29.96,ENE,70,5.0,5.0,78,0.00,,,0.09,Wunderground v.1.15,2013-09-10 22:55:00,
2013-09-10 19:02:00,83.0,76.2,29.95,East,101,4.0,5.0,80,0.00,,,0.09,Wunderground v.1.15,2013-09-10 23:02:00,
2013-09-10 19:08:00,82.9,76.1,29.95,ENE,66,4.0,5.0,80,0.00,,,0.09,Wunderground v.1.15,2013-09-10 23:08:00,
2013-09-10 19:14:00,82.8,76.0,29.95,East,88,4.0,4.0,80,0.00,,,0.09,Wunderground v.1.15,2013-09-10 23:14:00,
2013-09-10 19:19:00,82.7,75.5,29.95,NE,52,3.0,3.0,79,0.00,,,0.09,Wunderground v.1.15,2013-09-10 23:19:00,
2013-09-10 19:25:00,82.7,75.1,29.95,ESE,103,4.0,5.0,78,0.00,,,0.09,Wunderground v.1.15,2013-09-10 23:25:00,
2013-09-10 19:32:00,82.7,75.1,29.95,ENE,60,4.0,6.0,78,0.00,,,0.09,Wunderground v.1.15,2013-09-10 23:32:00,
2013-09-10 19:37:00,82.7,75.5,29.95,NNE,16,4.0,6.0,79,0.00,,,0.09,Wunderground v.1.15,2013-09-10 23:37:00,
2013-09-10 19:43:00,82.0,76.3,29.95,ESE,108,4.0,8.0,83,0.29,,,0.11,Wunderground v.1.15,2013-09-10 23:43:00,
2013-09-10 19:50:00,81.2,75.9,29.95,ENE,77,5.0,5.0,84,0.07,,,0.11,Wunderground v.1.15,2013-09-10 23:50:00,
2013-09-10 19:55:00,81.1,75.8,29.95,East,98,3.0,5.0,84,0.04,,,0.11,Wunderground v.1.15,2013-09-10 23:55:00,
2013-09-10 20:01:00,81.1,75.8,29.95,East,80,2.0,2.0,84,0.00,,,0.11,Wunderground v.1.15,2013-09-11 00:01:00,
2013-09-10 20:08:00,81.0,76.1,29.95,ENE,70,2.0,2.0,85,0.00,,,0.11,Wunderground v.1.15,2013-09-11 00:08:00,
2013-09-10 20:14:00,81.1,75.8,29.95,ESE,122,2.0,4.0,84,0.00,,,0.11,Wunderground v.1.15,2013-09-11 00:14:00,
2013-09-10 20:20:00,81.4,75.7,29.95,NE,56,3.0,3.0,83,0.00,,,0.11,Wunderground v.1.15,2013-09-11 00:20:00,
2013-09-10 20:25:00,81.5,74.4,29.96,NE,54,5.0,8.0,79,0.00,,,0.11,Wunderground v.1.15,2013-09-11 00:25:00,
2013-09-10 20:31:00,81.2,74.1,29.96,NE,50,6.0,6.0,79,0.00,,,0.11,Wunderground v.1.15,2013-09-11 00:31:00,
2013-09-10 20:38:00,80.9,74.5,29.96,East,81,4.0,6.0,81,0.00,,,0.11,Wunderground v.1.15,2013-09-11 00:38:00,
2013-09-10 20:44:00,80.8,75.2,29.96,East,81,3.0,5.0,83,0.00,,,0.11,Wunderground v.1.15,2013-09-11 00:44:00,
2013-09-10 20:50:00,80.7,75.4,29.96,NE,50,3.0,3.0,84,0.00,,,0.11,Wunderground v.1.15,2013-09-11 00:50:00,
2013-09-10 20:55:00,80.6,75.3,29.96,ENE,67,3.0,5.0,84,0.00,,,0.11,Wunderground v.1.15,2013-09-11 00:55:00,
2013-09-10 21:02:00,80.5,75.6,29.96,NE,46,2.0,3.0,85,0.00,,,0.11,Wunderground v.1.15,2013-09-11 01:02:00,
2013-09-10 21:08:00,80.3,75.4,29.96,NE,56,2.0,3.0,85,0.00,,,0.11,Wunderground v.1.15,2013-09-11 01:08:00,
2013-09-10 21:14:00,80.3,75.4,29.97,East,79,1.0,2.0,85,0.00,,,0.11,Wunderground v.1.15,2013-09-11 01:14:00,
2013-09-10 21:20:00,80.3,75.4,29.97,ENE,66,1.0,1.0,85,0.00,,,0.11,Wunderground v.1.15,2013-09-11 01:20:00,
2013-09-10 21:25:00,80.2,75.3,29.97,East,101,1.0,1.0,85,0.00,,,0.11,Wunderground v.1.15,2013-09-11 01:25:00,
2013-09-10 21:32:00,80.2,75.3,29.97,ENE,74,1.0,1.0,85,0.00,,,0.11,Wunderground v.1.15,2013-09-11 01:32:00,
2013-09-10 21:38:00,80.3,75.4,29.97,NE,53,1.0,1.0,85,0.00,,,0.11,Wunderground v.1.15,2013-09-11 01:38:00,
2013-09-10 21:49:00,80.3,75.4,29.97,ENE,67,1.0,1.0,85,0.00,,,0.11,Wunderground v.1.15,2013-09-11 01:49:00,
2013-09-10 21:56:00,80.3,75.4,29.97,ESE,107,1.0,2.0,85,0.00,,,0.11,Wunderground v.1.15,2013-09-11 01:56:00,
2013-09-10 22:02:00,80.3,75.4,29.97,ENE,59,1.0,2.0,85,0.00,,,0.11,Wunderground v.1.15,2013-09-11 02:02:00,
2013-09-10 22:10:00,80.8,75.2,29.97,ENE,63,3.0,3.0,83,0.00,,,0.11,Wunderground v.1.15,2013-09-11 02:10:00,
2013-09-10 22:16:00,81.0,75.3,29.98,ENE,78,2.0,3.0,83,0.00,,,0.11,Wunderground v.1.15,2013-09-11 02:16:00,
2013-09-10 22:22:00,81.2,75.5,29.97,East,82,2.0,4.0,83,0.00,,,0.11,Wunderground v.1.15,2013-09-11 02:22:00,
2013-09-10 22:27:00,81.4,76.1,29.97,East,86,3.0,4.0,84,0.00,,,0.11,Wunderground v.1.15,2013-09-11 02:27:00,
2013-09-10 22:34:00,81.4,75.7,29.97,East,90,3.0,4.0,83,0.00,,,0.11,Wunderground v.1.15,2013-09-11 02:34:00,
2013-09-10 22:40:00,81.5,75.8,29.97,NE,45,3.0,5.0,83,0.00,,,0.11,Wunderground v.1.15,2013-09-11 02:40:00,
2013-09-10 22:46:00,81.5,75.8,29.97,ENE,65,2.0,5.0,83,0.00,,,0.11,Wunderground v.1.15,2013-09-11 02:46:00,
2013-09-10 22:51:00,81.5,75.5,29.97,ENE,60,3.0,5.0,82,0.00,,,0.11,Wunderground v.1.15,2013-09-11 02:51:00,
2013-09-10 22:58:00,81.6,75.2,29.98,East,79,3.0,5.0,81,0.00,,,0.11,Wunderground v.1.15,2013-09-11 02:58:00,
2013-09-10 23:04:00,81.6,75.2,29.98,ESE,116,2.0,3.0,81,0.00,,,0.11,Wunderground v.1.15,2013-09-11 03:04:00,
2013-09-10 23:10:00,81.6,75.2,29.98,ENE,75,2.0,2.0,81,0.00,,,0.11,Wunderground v.1.15,2013-09-11 03:10:00,
2013-09-10 23:16:00,81.6,75.2,29.98,East,101,2.0,4.0,81,0.00,,,0.11,Wunderground v.1.15,2013-09-11 03:16:00,
2013-09-10 23:22:00,81.5,75.1,29.98,East,94,2.0,3.0,81,0.00,,,0.11,Wunderground v.1.15,2013-09-11 03:22:00,
2013-09-10 23:27:00,81.4,75.0,29.97,ENE,77,1.0,3.0,81,0.00,,,0.11,Wunderground v.1.15,2013-09-11 03:27:00,
2013-09-10 23:33:00,81.4,75.4,29.97,ENE,58,2.0,4.0,82,0.00,,,0.11,Wunderground v.1.15,2013-09-11 03:33:00,
2013-09-10 23:40:00,81.3,74.9,29.97,East,79,3.0,3.0,81,0.00,,,0.11,Wunderground v.1.15,2013-09-11 03:40:00,
2013-09-10 23:46:00,81.2,74.4,29.97,NE,51,3.0,3.0,80,0.00,,,0.11,Wunderground v.1.15,2013-09-11 03:46:00,
2013-09-10 23:52:00,81.1,74.7,29.97,ENE,68,3.0,5.0,81,0.00,,,0.11,Wunderground v.1.15,2013-09-11 03:52:00,
2013-09-10 23:57:00,80.8,74.4,29.96,NE,53,2.0,5.0,81,0.00,,,0.11,Wunderground v.1.15,2013-09-11 03:57:00,